Location: Unnamed
(51.5169°N, 0.1311°W)
Time: 15:31:13
(UTC+01:00)

Vanguard 1 - Pass Details

Date: 18 August 2024
Orbit: 649 x 3825 km, 34.2° (Epoch: 18 September)

Event Time Altitude Azimuth Distance (km) Brightness Sun altitude
Rises 01:45:35 0° 258° (WSW) 4,682 13.3 -24.9°
Reaches altitude 10° 01:48:41 10° 248° (WSW) 4,070 12.9 -24.8°
Enters shadow 01:48:54 11° 247° (WSW) 4,034 12.9 -24.8°
Exits shadow 02:02:04 28° 171° (S) 4,208 12.7 -24.3°
Drops below altitude 10° 02:12:59 10° 141° (SE) 6,347 13.9 -23.8°
Sets 02:19:32 0° 133° (SE) 7,708 14.4 -23.5°
